When you browse on this site, cookies collect data to enhance your experience and personalize the content and advertising you see.
Visit our Privacy Policy to learn more. By continuing to use the site, you agree to this use of cookies and data.
EN

Hourly Weather Cobija

Today, 15 July, Wednesday

Time Temperature Precipitation Wind Pressure Humidity
00:00 +24°C° 0.1 mm 1 mps 740 mmHg 91%
01:00 +23°C° 0 mm 1 mps 740 mmHg 96%
02:00 +23°C° 0.2 mm 1 mps 739 mmHg 97%
03:00 +23°C° 0.2 mm 1 mps 739 mmHg 98%
04:00 +23°C° 0.2 mm 1 mps 739 mmHg 98%
05:00 +23°C° 0.1 mm 1 mps 740 mmHg 98%
06:00 +23°C° 0.1 mm 1 mps 740 mmHg 97%
07:00 +23°C° 0.1 mm 1 mps 741 mmHg 97%
08:00 +26°C° 0 mm 1 mps 741 mmHg 84%
09:00 +28°C° 0 mm 1 mps 741 mmHg 72%
10:00 +31°C° 0 mm 1 mps 741 mmHg 60%
11:00 +32°C° 0.1 mm 1 mps 740 mmHg 56%
12:00 +33°C° 0.1 mm 1 mps 739 mmHg 51%
13:00 +34°C° 0.1 mm 1 mps 739 mmHg 46%
14:00 +33°C° 0 mm 1 mps 738 mmHg 51%
15:00 +32°C° 0 mm 1 mps 737 mmHg 55%
16:00 +30°C° 0 mm 0 mps 737 mmHg 59%
17:00 +28°C° 0 mm 0 mps 737 mmHg 64%
18:00 +27°C° 0 mm 0 mps 738 mmHg 70%
19:00 +25°C° 0 mm 0 mps 738 mmHg 75%
20:00 +24°C° 0 mm 0 mps 738 mmHg 77%
21:00 +24°C° 0 mm 0 mps 739 mmHg 79%
22:00 +23°C° 0 mm 0 mps 739 mmHg 81%
23:00 +23°C° 0 mm 0 mps 739 mmHg 83%

Tomorrow, 16 July, Thursday

Time Temperature Precipitation Wind Pressure Humidity
00:00 +23°C° 0 mm 0 mps 739 mmHg 84%
01:00 +22°C° 0 mm 0 mps 739 mmHg 86%
02:00 +22°C° 0 mm 0 mps 739 mmHg 88%
03:00 +22°C° 0 mm 0 mps 739 mmHg 89%
04:00 +23°C° 0 mm 1 mps 739 mmHg 91%
05:00 +22°C° 0 mm 0 mps 739 mmHg 89%
06:00 +22°C° 0 mm 0 mps 740 mmHg 87%
07:00 +23°C° 0 mm 0 mps 740 mmHg 84%
08:00 +26°C° 0 mm 0 mps 741 mmHg 72%
09:00 +29°C° 0 mm 0 mps 741 mmHg 60%
10:00 +32°C° 0 mm 0 mps 741 mmHg 47%
11:00 +35°C° 0 mm 1 mps 740 mmHg 44%
12:00 +36°C° 0 mm 1 mps 739 mmHg 40%
13:00 +36°C° 0 mm 1 mps 739 mmHg 37%
14:00 +35°C° 0 mm 1 mps 738 mmHg 40%
15:00 +34°C° 0 mm 1 mps 738 mmHg 43%
16:00 +34°C° 0 mm 1 mps 737 mmHg 47%
17:00 +32°C° 0 mm 1 mps 737 mmHg 52%
18:00 +28°C° 0 mm 0 mps 737 mmHg 58%
19:00 +26°C° 0 mm 0 mps 737 mmHg 63%
20:00 +25°C° 0 mm 0 mps 738 mmHg 65%
21:00 +24°C° 0 mm 0 mps 738 mmHg 67%
22:00 +24°C° 0 mm 0 mps 738 mmHg 69%
23:00 +24°C° 0 mm 0 mps 738 mmHg 70%

Day after tomorrow, 17 July, Friday

Time Temperature Precipitation Wind Pressure Humidity
00:00 +23°C° 0 mm 0 mps 738 mmHg 71%
01:00 +23°C° 0 mm 0 mps 738 mmHg 71%
02:00 +23°C° 0 mm 0 mps 738 mmHg 72%
03:00 +22°C° 0 mm 0 mps 738 mmHg 72%
04:00 +22°C° 0 mm 0 mps 738 mmHg 73%
05:00 +22°C° 0 mm 0 mps 739 mmHg 73%
06:00 +23°C° 0 mm 0 mps 739 mmHg 73%
07:00 +23°C° 0 mm 0 mps 740 mmHg 73%
08:00 +26°C° 0 mm 0 mps 740 mmHg 62%
09:00 +30°C° 0 mm 0 mps 741 mmHg 51%
10:00 +33°C° 0 mm 0 mps 741 mmHg 40%
11:00 +34°C° 0 mm 0 mps 740 mmHg 36%
12:00 +35°C° 0 mm 0 mps 739 mmHg 32%
13:00 +37°C° 0 mm 1 mps 739 mmHg 28%
14:00 +37°C° 0 mm 1 mps 738 mmHg 31%
15:00 +34°C° 0 mm 0 mps 737 mmHg 33%
16:00 +33°C° 0 mm 0 mps 737 mmHg 35%
17:00 +30°C° 0 mm 0 mps 737 mmHg 39%
18:00 +28°C° 0 mm 0 mps 737 mmHg 44%
19:00 +25°C° 0 mm 0 mps 737 mmHg 48%
20:00 +24°C° 0 mm 0 mps 737 mmHg 50%
21:00 +23°C° 0 mm 0 mps 738 mmHg 52%
22:00 +23°C° 0 mm 0 mps 738 mmHg 55%
23:00 +22°C° 0 mm 0 mps 738 mmHg 57%

18 July, Saturday

Time Temperature Precipitation Wind Pressure Humidity
00:00 +22°C° 0 mm 0 mps 738 mmHg 59%
01:00 +21°C° 0 mm 0 mps 738 mmHg 62%
02:00 +21°C° 0 mm 0 mps 738 mmHg 64%
03:00 +20°C° 0 mm 0 mps 738 mmHg 66%
04:00 +20°C° 0 mm 0 mps 738 mmHg 68%
05:00 +21°C° 0 mm 0 mps 738 mmHg 68%
06:00 +21°C° 0 mm 0 mps 739 mmHg 69%
07:00 +22°C° 0 mm 0 mps 739 mmHg 69%
08:00 +25°C° 0 mm 0 mps 740 mmHg 59%
09:00 +29°C° 0 mm 0 mps 740 mmHg 48%
10:00 +34°C° 0 mm 1 mps 740 mmHg 38%
11:00 +35°C° 0 mm 1 mps 740 mmHg 34%
12:00 +36°C° 0 mm 1 mps 739 mmHg 30%
13:00 +37°C° 0 mm 1 mps 738 mmHg 27%
14:00 +36°C° 0 mm 1 mps 737 mmHg 30%
15:00 +34°C° 0 mm 0 mps 737 mmHg 32%
16:00 +33°C° 0 mm 0 mps 736 mmHg 35%
17:00 +30°C° 0 mm 0 mps 736 mmHg 40%
18:00 +28°C° 0 mm 0 mps 736 mmHg 46%
19:00 +25°C° 0 mm 0 mps 736 mmHg 51%
20:00 +24°C° 0 mm 0 mps 736 mmHg 52%
21:00 +24°C° 0 mm 0 mps 737 mmHg 54%
22:00 +23°C° 0 mm 0 mps 737 mmHg 55%
23:00 +23°C° 0 mm 0 mps 737 mmHg 56%

19 July, Sunday

Time Temperature Precipitation Wind Pressure Humidity
00:00 +22°C° 0 mm 0 mps 737 mmHg 57%
01:00 +22°C° 0 mm 0 mps 737 mmHg 58%
02:00 +22°C° 0 mm 0 mps 737 mmHg 60%
03:00 +21°C° 0 mm 0 mps 737 mmHg 62%
04:00 +21°C° 0 mm 0 mps 737 mmHg 64%
05:00 +21°C° 0 mm 0 mps 738 mmHg 64%
06:00 +21°C° 0 mm 0 mps 738 mmHg 65%
07:00 +22°C° 0 mm 0 mps 739 mmHg 65%
08:00 +25°C° 0 mm 0 mps 739 mmHg 56%
09:00 +29°C° 0 mm 0 mps 739 mmHg 47%
10:00 +34°C° 0 mm 1 mps 740 mmHg 37%
11:00 +35°C° 0 mm 1 mps 739 mmHg 34%
12:00 +37°C° 0 mm 1 mps 738 mmHg 30%
13:00 +39°C° 0 mm 1 mps 738 mmHg 26%
14:00 +35°C° 0 mm 0 mps 737 mmHg 29%
15:00 +34°C° 0 mm 0 mps 736 mmHg 32%
16:00 +34°C° 0 mm 0 mps 735 mmHg 35%
17:00 +31°C° 0 mm 0 mps 736 mmHg 39%
18:00 +28°C° 0 mm 0 mps 736 mmHg 44%
19:00 +26°C° 0 mm 0 mps 736 mmHg 49%
20:00 +25°C° 0 mm 0 mps 736 mmHg 51%
21:00 +25°C° 0 mm 0 mps 737 mmHg 53%
22:00 +24°C° 0 mm 0 mps 737 mmHg 55%
23:00 +23°C° 0 mm 0 mps 737 mmHg 57%

20 July, Monday

Time Temperature Precipitation Wind Pressure Humidity
00:00 +23°C° 0 mm 0 mps 737 mmHg 60%
01:00 +23°C° 0 mm 0 mps 737 mmHg 62%
02:00 +22°C° 0 mm 0 mps 737 mmHg 64%
03:00 +22°C° 0 mm 0 mps 737 mmHg 67%
04:00 +21°C° 0 mm 0 mps 737 mmHg 69%
05:00 +22°C° 0 mm 0 mps 737 mmHg 69%
06:00 +22°C° 0 mm 0 mps 738 mmHg 68%
07:00 +22°C° 0 mm 0 mps 738 mmHg 68%
08:00 +26°C° 0 mm 0 mps 739 mmHg 58%
09:00 +29°C° 0 mm 0 mps 739 mmHg 49%
10:00 +33°C° 0 mm 0 mps 739 mmHg 39%
11:00 +34°C° 0 mm 0 mps 739 mmHg 36%
12:00 +35°C° 0 mm 0 mps 738 mmHg 32%
13:00 +37°C° 0 mm 0 mps 737 mmHg 28%
14:00 +36°C° 0 mm 0 mps 736 mmHg 30%
15:00 +35°C° 0 mm 0 mps 736 mmHg 32%
16:00 +34°C° 0 mm 0 mps 735 mmHg 35%
17:00 +31°C° 0 mm 0 mps 735 mmHg 41%
18:00 +28°C° 0 mm 0 mps 735 mmHg 47%
19:00 +26°C° 0 mm 0 mps 735 mmHg 53%
20:00 +25°C° 0 mm 0 mps 735 mmHg 55%
21:00 +25°C° 0 mm 0 mps 736 mmHg 57%
22:00 +24°C° 0 mm 0 mps 736 mmHg 58%
23:00 +24°C° 0 mm 0 mps 736 mmHg 61%
Show more